📊 Raw Sensor Data
Showing records 42876 to 42900 of 85,007 total
| ID | Distance (ft) | Battery V | Battery A | Int Temp (°F) | Int Humid (%) | Ext Temp (°F) | Solar V | RSSI | SNR | Time Stamp |
|---|---|---|---|---|---|---|---|---|---|---|
| 42144 | 15.2 | 3.91 | -5 | 61 | 44 | 62 | 0.00 | -71 | 8 | 05/31/2025 04:30 AM |
| 42143 | 15.2 | 3.96 | -5 | 61 | 44 | 63 | 0.10 | -72 | 8 | 05/31/2025 04:15 AM |
| 42142 | 15.2 | 3.91 | -5 | 62 | 44 | 64 | 0.00 | -72 | 8 | 05/31/2025 04:00 AM |
| 42141 | 15.2 | 3.91 | -5 | 63 | 43 | 65 | 0.00 | -72 | 8 | 05/31/2025 03:45 AM |
| 42140 | 15.1 | 3.96 | -5 | 62 | 44 | 67 | 0.00 | -72 | 8 | 05/31/2025 03:30 AM |
| 42139 | 15.2 | 3.97 | -5 | 62 | 44 | 64 | 0.00 | -72 | 8 | 05/31/2025 03:15 AM |
| 42138 | 15.1 | 3.97 | -5 | 62 | 44 | 63 | 0.00 | -72 | 6 | 05/31/2025 03:00 AM |
| 42137 | 15.1 | 3.91 | -5 | 62 | 45 | 63 | 0.00 | -71 | 8 | 05/31/2025 02:45 AM |
| 42136 | 15.2 | 3.91 | -5 | 63 | 45 | 63 | 0.00 | -72 | 7 | 05/31/2025 02:30 AM |
| 42135 | 15.1 | 3.92 | -5 | 63 | 45 | 64 | 0.00 | -72 | 8 | 05/31/2025 02:15 AM |
| 42134 | 15.1 | 3.92 | -5 | 64 | 45 | 65 | 0.10 | -72 | 8 | 05/31/2025 02:00 AM |
| 42133 | 15.1 | 3.92 | -5 | 64 | 45 | 66 | 0.00 | -71 | 8 | 05/31/2025 01:45 AM |
| 42132 | 15.2 | 3.92 | -5 | 65 | 45 | 65 | 0.00 | -72 | 8 | 05/31/2025 01:30 AM |
| 42131 | 15.1 | 3.92 | -5 | 65 | 46 | 66 | 0.00 | -72 | 8 | 05/31/2025 01:15 AM |
| 42130 | 15.1 | 3.92 | -5 | 67 | 46 | 67 | 0.00 | -72 | 8 | 05/31/2025 01:00 AM |
| 42129 | 15.2 | 3.92 | -5 | 68 | 45 | 67 | 0.00 | -72 | 8 | 05/31/2025 12:45 AM |
| 42128 | 15.2 | 3.92 | -5 | 69 | 45 | 70 | 0.00 | -71 | 7 | 05/31/2025 12:30 AM |
| 42127 | 15.1 | 3.92 | -5 | 70 | 45 | 71 | 0.10 | -72 | 8 | 05/31/2025 12:15 AM |
| 42126 | 15.1 | 3.97 | -5 | 70 | 45 | 71 | 0.00 | -73 | 8 | 05/31/2025 12:00 AM |
| 42125 | 15.1 | 3.98 | -5 | 70 | 45 | 71 | 0.00 | -72 | 7 | 05/30/2025 11:45 PM |
| 42124 | 15.1 | 3.92 | -5 | 70 | 45 | 72 | 0.00 | -72 | 8 | 05/30/2025 11:30 PM |
| 42123 | 15.1 | 3.92 | -5 | 70 | 46 | 72 | 0.00 | -73 | 8 | 05/30/2025 11:15 PM |
| 42122 | 15.1 | 3.92 | -5 | 70 | 46 | 70 | 0.00 | -72 | 7 | 05/30/2025 11:00 PM |
| 42121 | 15.1 | 3.98 | -5 | 71 | 47 | 72 | 0.10 | -73 | 8 | 05/30/2025 10:45 PM |
| 42120 | 15.1 | 3.98 | -5 | 72 | 47 | 72 | 0.00 | -72 | 7 | 05/30/2025 10:30 PM |